Location: ??????
(41.3747°N, 22.5491°E)
Time: 06:16:37
(UTC+00:00)

BREEZE-M TANK - Pass Details

Date: 01 December 2020
Orbit: 585 x 24701 km, 45.3° (Epoch: 20 January)

Event Time Altitude Azimuth Distance (km) Brightness Sun altitude
Rises 15:45:30 0° 294° (WNW) 5,379 8.1 -8.4°
Reaches altitude 10° 15:50:07 10° 290° (WNW) 3,144 6.9 -9.2°
Maximum altitude 15:55:39 48° 215° (SW) 857 3.7 -10.1°
Drops below altitude 10° 15:58:58 10° 138° (SE) 1,899 4.8 -10.7°
Sets 16:01:01 0° 132° (SE) 2,933 5.7 -11.1°
